TimeBST,TemperatureF,Dew PointF,Humidity,Sea Level PressureIn,VisibilityMPH,Wind Direction,Wind SpeedMPH,Gust SpeedMPH,PrecipitationIn,Events,Conditions,WindDirDegrees,DateUTC
12:50 AM,51,49,92,29.73,4,SSE,8.1,,,,Mostly Cloudy,160,2012-10-04 23:50:00
3:50 AM,59,58,97,29.54,3,SW,24.2,,,,Mostly Cloudy,220,2012-10-05 02:50:00
6:50 AM,52,50,89,29.65,31,NW,9.2,,,,Partly Cloudy,310,2012-10-05 05:50:00
6:50 AM,51.8,48.2,88,29.65,6.2,WNW,10.4,-,N/A,,Mostly Cloudy,300,2012-10-05 05:50:00
7:20 AM,51.8,48.2,88,29.65,6.2,West,4.6,-,N/A,,Scattered Clouds,270,2012-10-05 06:20:00
7:50 AM,51.8,50.0,94,29.65,6.2,WSW,6.9,-,N/A,,Partly Cloudy,250,2012-10-05 06:50:00
8:20 AM,51.8,50.0,94,29.68,6.2,WSW,6.9,-,N/A,,Partly Cloudy,250,2012-10-05 07:20:00
8:50 AM,53.6,51.8,94,29.71,6.2,SW,9.2,-,N/A,,Partly Cloudy,230,2012-10-05 07:50:00
9:20 AM,53.6,50.0,88,29.74,6.2,WSW,10.4,-,N/A,,Partly Cloudy,250,2012-10-05 08:20:00
9:50 AM,55,50,78,29.75,34,West,10.4,,,,Overcast,260,2012-10-05 08:50:00
9:50 AM,55.4,50.0,82,29.74,6.2,WSW,11.5,-,N/A,,Partly Cloudy,250,2012-10-05 08:50:00
10:20 AM,55.4,50.0,82,29.74,6.2,West,12.7,-,N/A,,Partly Cloudy,260,2012-10-05 09:20:00
10:50 AM,57.2,50.0,77,29.77,6.2,West,12.7,-,N/A,,Partly Cloudy,260,2012-10-05 09:50:00
11:20 AM,57.2,50.0,77,29.77,6.2,WSW,13.8,-,N/A,,Scattered Clouds,250,2012-10-05 10:20:00
11:50 AM,55.4,48.2,77,29.77,6.2,West,13.8,-,N/A,,Mostly Cloudy,260,2012-10-05 10:50:00
12:20 PM,55.4,48.2,77,29.80,6.2,West,11.5,-,N/A,,Mostly Cloudy,260,2012-10-05 11:20:00
12:50 PM,56,49,69,29.81,28,West,11.5,,,,Partly Cloudy,270,2012-10-05 11:50:00
12:50 PM,57.2,48.2,72,29.80,6.2,West,12.7,-,N/A,,Mostly Cloudy,260,2012-10-05 11:50:00
1:20 PM,57.2,50.0,77,29.80,6.2,WSW,12.7,-,N/A,,Mostly Cloudy,250,2012-10-05 12:20:00
1:50 PM,57.2,50.0,77,29.80,6.2,WNW,8.1,-,N/A,,Mostly Cloudy,300,2012-10-05 12:50:00
2:20 PM,57.2,50.0,77,29.80,6.2,WNW,6.9,-,N/A,Rain,Light Rain,290,2012-10-05 13:20:00
2:50 PM,55.4,50.0,82,29.80,6.2,WNW,5.8,-,N/A,Rain,Light Rain,290,2012-10-05 13:50:00
3:20 PM,55.4,50.0,82,29.83,6.2,WSW,10.4,-,N/A,,Mostly Cloudy,240,2012-10-05 14:20:00
3:50 PM,55,50,78,29.83,25,WSW,8.1,,,,Mostly Cloudy,240,2012-10-05 14:50:00
3:50 PM,55.4,50.0,82,29.83,6.2,SW,9.2,-,N/A,Rain,Light Rain,220,2012-10-05 14:50:00
4:20 PM,53.6,51.8,94,29.83,3.1,WSW,8.1,-,N/A,Rain,Rain,240,2012-10-05 15:20:00
4:50 PM,53.6,50.0,88,29.83,3.1,WSW,5.8,-,N/A,Rain,Rain,250,2012-10-05 15:50:00
5:20 PM,51.8,50.0,94,29.83,6.2,West,8.1,-,N/A,Rain,Light Rain,260,2012-10-05 16:20:00
5:50 PM,51.8,50.0,94,29.83,6.2,West,4.6,-,N/A,Rain,Light Rain,260,2012-10-05 16:50:00
6:20 PM,50.0,48.2,94,29.83,3.1,WSW,4.6,-,N/A,Rain,Light Rain,240,2012-10-05 17:20:00
6:50 PM,51,49,92,29.85,3,West,3.5,,,,Scattered Clouds,260,2012-10-05 17:50:00
6:50 PM,50.0,48.2,94,29.86,1.9,WSW,3.5,-,N/A,Rain,Heavy Rain,240,2012-10-05 17:50:00
7:20 PM,50.0,48.2,94,29.83,2.5,SSW,2.3,-,N/A,Rain,Heavy Rain,210,2012-10-05 18:20:00
7:50 PM,50.0,48.2,94,29.83,3.7,Variable,3.5,-,N/A,Rain,Heavy Rain,0,2012-10-05 18:50:00
8:20 PM,50.0,48.2,94,29.83,1.9,SSW,3.5,-,N/A,Rain,Rain,200,2012-10-05 19:20:00
8:50 PM,50.0,48.2,94,29.83,2.2,Calm,Calm,-,N/A,Rain,Rain,0,2012-10-05 19:50:00
9:20 PM,48.2,48.2,100,29.83,3.4,SW,1.2,-,N/A,Rain,Rain,220,2012-10-05 20:20:00
9:50 PM,50,49,94,29.83,1,North,1.2,,,,Mostly Cloudy,350,2012-10-05 20:50:00